[[{"header":{"parameterUnit":"m.s-1","parameterCategory":1,"la1":30.2991,"la2":30.254,"lo1":-89.0895,"lo2":-89.0444,"dy":0.0017,"dx":0.0017,"nx":28,"ny":28,"refTime":"2025-01-03T09:00:00:Z","depth":0,"parameterNumber":2,"parameterNumberName":"U-component_of_WINDS"},"data":[0,0,0,0,0,0,0,0,0,0,0,0,0,0,0,0,0,0,0,0,0,0,0,0,0,0,0,0,0,0,0,0,0,0,0,0,0,0,0,0,0,0,0,0,0,0,0,0,0,0,0,0,0,0,0,0,0,0,-0.9706,-0.9706,0,-0.969,-0.969,-0.969,-0.9632,-0.9631,-0.963,-0.9629,-0.9614,-0.9615,-0.9616,0,0,0,0,0,0,0,0,0,0,0,0,0,-0.9688,-0.9689,-0.9706,-0.9706,-0.9706,-0.969,-0.969,-0.969,-0.9633,-0.9631,-0.963,-0.9628,-0.9614,-0.9615,-0.9616,0,0,0,0,0,0,0,0,0,0,0,0,0,-0.9687,-0.9689,-0.9706,-0.9675,-0.9672,-0.969,-0.969,-0.969,-0.9633,-0.9631,-0.9629,-0.9627,-0.9614,-0.9615,-0.9616,-0.9663,0,0,-0.962,-0.962,0,0,0,0,0,0,0,0,-0.9687,-0.9687,-0.968,-0.9678,-0.9674,-0.9661,-0.9678,-0.9681,-0.9634,-0.9648,-0.9629,-0.9626,-0.9632,-0.9631,-0.9633,-0.9662,-0.9662,-0.962,-0.9621,-0.9621,-0.9622,0,0,0,0,0,0,0,-0.9687,-0.9688,-0.97,-0.968,-0.9677,-0.9663,-0.966,-0.9679,-0.9651,-0.9647,-0.9642,-0.9641,-0.963,-0.9631,-0.9632,-0.9661,-0.962,-0.9621,-0.9622,-0.9622,-0.9729,-0.9731,0,0,0,0,0,0,-0.9691,-0.9688,-0.97,-0.9699,-0.9676,-0.9665,-0.9662,-0.9667,-0.9651,-0.9646,-0.9643,-0.9639,-0.963,-0.963,-0.9631,-0.9685,-0.9621,-0.9622,-0.9623,-0.9727,-0.9729,-0.9731,0,0,0,0,0,0,-0.9691,-0.9693,-0.9701,-0.9693,-0.9693,-0.9667,-0.9674,-0.9668,-0.967,-0.9648,-0.9643,-0.965,-0.9629,-0.9629,-0.9655,-0.9684,-0.9623,-0.9624,-0.9724,-0.9727,-0.973,-0.9794,0,0,0,0,0,0,-0.9691,-0.9693,-0.9711,-0.9693,-0.9693,-0.9726,-0.9675,-0.9669,-0.9672,-0.9666,-0.9653,-0.9649,-0.9627,-0.9654,-0.9657,-0.9685,-0.9625,-0.9722,-0.9726,-0.9729,-0.979,-0.9799,-0.9808,0,0,0,0,0,-0.969,-0.973,-0.9712,-0.9714,-0.9715,-0.9727,-0.9727,-0.9701,-0.9675,-0.9692,-0.9678,-0.9649,-0.968,-0.9657,-0.966,-0.9689,-0.972,-0.9725,-0.9729,-0.9786,-0.9797,-0.9807,0,0,0,0,0,0,-0.9752,-0.9727,-0.9707,-0.9742,-0.9737,-0.9718,-0.9739,-0.9714,-0.9718,-0.9712,-0.968,-0.9677,-0.9708,-0.97,-0.9675,-0.9733,-0.9695,-0.9701,-0.9737,-0.9748,-0.9757,-0.9759,-0.9626,0,0,0,0,0,-0.977,-0.9782,-0.9759,-0.9792,-0.9791,-0.9765,-0.977,-0.975,-0.9744,-0.9742,-0.9729,-0.9725,-0.9734,-0.974,-0.9747,-0.9787,-0.9784,-0.9809,-0.9818,-0.9825,-0.9831,-0.9852,-0.9863,-0.9747,-0.9747,-0.9747,0,0,-0.9807,-0.9794,-0.9804,-0.9804,-0.9798,-0.9812,-0.9764,-0.9781,-0.9791,-0.9744,-0.9769,-0.9759,-0.9752,-0.9786,-0.98,-0.9781,-0.9862,-0.9831,-0.9837,-0.9839,-0.9858,-0.9869,-0.9879,-0.975,-0.9749,-0.9749,0,0,-0.9881,-0.9872,-0.9899,-0.9893,-0.9884,-0.9867,-0.9873,-0.9857,-0.9849,-0.9872,-0.9838,-0.9849,-0.9865,-0.9861,-0.9862,-0.9933,-0.9907,-0.9936,-0.9984,-1.0005,-1.0014,-1.0022,-1.0049,-1.0059,-0.9941,-0.9941,-0.9941,0,-0.9928,-0.9947,-0.9916,-0.9935,-0.9936,-0.9893,-0.992,-0.9917,-0.9911,-0.9913,-0.9891,-0.9909,-0.9901,-0.9934,-0.9951,-0.9952,-0.9959,-0.9938,-1.0015,-1.0023,-1.003,-1.0055,-1.0065,-0.9945,-0.9945,-0.9944,-0.9944,0,-1.0006,-1.0019,-1.0042,-1.0036,-1.004,-1.0063,-1.0036,-1.0043,-1.0022,-1.0007,-1.0031,-1.002,-1.0024,-1.003,-1.001,-1.006,-1.0048,-1.0021,-0.9983,-1.0045,-1.0069,-1.0078,-0.995,-0.9949,-0.9948,-0.9947,0,0,-1.0121,-1.0096,-1.0106,-1.0102,-1.0089,-1.0099,-1.0119,-1.0122,-1.013,-1.0126,-1.0144,-1.0157,-1.0132,-1.0132,-1.0111,-1.0129,-1.0188,-1.01,-1.0099,-1.0118,-1.0243,-1.0265,-1.0277,-1.017,-1.0171,-1.0173,-1.0244,0,-1.0192,-1.0226,-1.0198,-1.0238,-1.025,-1.0209,-1.0227,-1.0221,-1.0207,-1.0216,-1.02,-1.0211,-1.0176,-1.0176,-1.0192,-1.0178,-1.0213,-1.0172,-1.0187,-1.0188,-1.0192,-1.0288,-1.0312,-1.038,-1.0253,-1.0254,-1.0256,0,-1.0281,-1.0281,-1.0322,-1.0305,-1.0309,-1.0326,-1.0326,-1.0334,-1.0326,-1.0315,-1.0315,-1.0288,-1.0308,-1.0268,-1.0295,-1.0268,-1.0272,-1.0266,-1.0268,-1.027,-1.0227,-1.0295,-1.0401,-1.0412,-1.0269,-1.0268,-1.0267,0,-1.0363,-1.0373,-1.0398,-1.0397,-1.0377,-1.039,-1.0383,-1.0372,-1.0376,-1.0376,-1.0378,-1.038,-1.0382,-1.0385,-1.036,-1.0334,-1.0391,-1.0349,-1.0383,-1.0384,-1.0399,-1.0399,-1.0509,-1.0399,-1.0398,-1.0398,-1.0398,0,-1.0447,-1.0474,-1.0435,-1.0451,-1.0479,-1.0446,-1.0476,-1.0464,-1.0455,-1.0468,-1.0432,-1.0446,-1.0411,-1.0421,-1.0402,-1.0428,-1.0428,-1.042,-1.0415,-1.0425,-1.0426,-1.0429,-1.0424,-1.0401,-1.04,-1.04,-1.0399,0,-1.0544,-1.0519,-1.0544,-1.0523,-1.0518,-1.054,-1.0522,-1.0537,-1.0519,-1.0537,-1.0539,-1.0513,-1.0522,-1.0497,-1.0503,-1.049,-1.0528,-1.0514,-1.0531,-1.0527,-1.0563,-1.0561,-1.068,-1.0695,-1.0574,-1.0575,-1.0576,0,-1.0601,-1.062,-1.0601,-1.0607,-1.0601,-1.0611,-1.0614,-1.0582,-1.0586,-1.0578,-1.0593,-1.06,-1.0603,-1.0621,-1.0603,-1.0607,-1.0594,-1.0636,-1.0595,-1.0604,-1.0597,-1.0597,-1.0599,-1.0645,-1.0647,-1.0648,-1.0649,0,-1.0704,-1.069,-1.0696,-1.0696,-1.0701,-1.07,-1.0697,-1.0704,-1.0669,-1.0676,-1.0685,-1.0688,-1.0693,-1.0701,-1.0701,-1.0693,-1.0666,-1.0661,-1.067,-1.0681,-1.069,-1.0687,-1.0556,-1.0659,-1.0658,-1.0658,-1.0657,-1.0657,-1.0784,-1.0799,-1.0788,-1.0795,-1.0789,-1.0786,-1.0798,-1.0782,-1.0789,-1.079,-1.0771,-1.0784,-1.0775,-1.0772,-1.0767,-1.0778,-1.0759,-1.0771,-1.0774,-1.0778,-1.0785,-1.0687,-1.0777,-1.0777,-1.0777,-1.0777,-1.0776,0,-1.0887,-1.0877,-1.0883,-1.088,-1.0885,-1.0856,-1.0851,-1.0858,-1.087,-1.0863,-1.0867,-1.0877,-1.0884,-1.0866,-1.0869,-1.0881,-1.0869,-1.0884,-1.0884,-1.0883,-1.0801,-1.0794,-1.0894,-1.0894,-1.0894,-1.0894,-1.0894,-1.0894,-1.0942,-1.0966,-1.0951,-1.0972,-1.0962,-1.0974,-1.0973,-1.0971,-1.0965,-1.0978,-1.0983,-1.097,-1.0959,-1.0962,-1.0967,-1.0961,-1.0965,-1.0985,-1.0975,-1.09,-1.0888,-1.0877,-1.0871,-1.0985,-1.0985,-1.1056,-1.1057,-1.1058]},{"header":{"parameterUnit":"m.s-1","parameterCategory":1,"la1":30.2991,"la2":30.254,"lo1":-89.0895,"lo2":-89.0444,"dy":0.0017,"dx":0.0017,"nx":28,"ny":28,"refTime":"2025-01-03T09:00:00:Z","depth":0,"parameterNumber":3,"parameterNumberName":"V-component_of_WINDS"},"data":[0,0,0,0,0,0,0,0,0,0,0,0,0,0,0,0,0,0,0,0,0,0,0,0,0,0,0,0,0,0,0,0,0,0,0,0,0,0,0,0,0,0,0,0,0,0,0,0,0,0,0,0,0,0,0,0,0,0,-4.0798,-4.0799,0,-4.0918,-4.0919,-4.0921,-4.0894,-4.0892,-4.089,-4.0888,-4.1008,-4.1013,-4.1018,0,0,0,0,0,0,0,0,0,0,0,0,0,-4.0542,-4.0547,-4.0797,-4.0799,-4.08,-4.0918,-4.0919,-4.0921,-4.0895,-4.0892,-4.0889,-4.0887,-4.1006,-4.1012,-4.1019,0,0,0,0,0,0,0,0,0,0,0,0,0,-4.0657,-4.0548,-4.0797,-4.0802,-4.0803,-4.0918,-4.092,-4.0922,-4.0895,-4.0892,-4.0889,-4.0885,-4.1004,-4.1012,-4.102,-4.1136,0,0,-4.1044,-4.1047,0,0,0,0,0,0,0,0,-4.065,-4.0666,-4.0799,-4.0801,-4.0803,-4.0888,-4.0873,-4.0993,-4.0896,-4.086,-4.0888,-4.0884,-4.097,-4.0981,-4.1011,-4.1142,-4.1147,-4.1045,-4.1049,-4.1053,-4.1055,0,0,0,0,0,0,0,-4.0642,-4.0661,-4.0845,-4.0801,-4.0804,-4.0797,-4.0809,-4.0896,-4.0933,-4.0863,-4.0861,-4.0876,-4.0971,-4.1003,-4.1013,-4.1149,-4.1044,-4.1051,-4.1056,-4.1059,-4.1383,-4.1386,0,0,0,0,0,0,-4.0633,-4.0654,-4.0841,-4.0849,-4.0717,-4.0804,-4.0818,-4.0864,-4.0932,-4.0939,-4.0879,-4.0875,-4.0991,-4.1004,-4.1018,-4.116,-4.1053,-4.106,-4.1065,-4.1379,-4.1384,-4.1388,0,0,0,0,0,0,-4.0628,-4.065,-4.0836,-4.0751,-4.0774,-4.0812,-4.0864,-4.0868,-4.0901,-4.0944,-4.095,-4.0906,-4.0989,-4.1006,-4.1108,-4.1164,-4.1064,-4.1071,-4.1374,-4.138,-4.1386,-4.1445,0,0,0,0,0,0,-4.062,-4.0648,-4.0693,-4.0752,-4.0779,-4.0925,-4.0867,-4.0873,-4.0915,-4.091,-4.097,-4.0977,-4.0988,-4.1096,-4.1115,-4.1173,-4.1077,-4.137,-4.1377,-4.1384,-4.1438,-4.1452,-4.1464,0,0,0,0,0,-4.0611,-4.0704,-4.0696,-4.0718,-4.0837,-4.0929,-4.0944,-4.0955,-4.0919,-4.0965,-4.0993,-4.0975,-4.1154,-4.1106,-4.1128,-4.1189,-4.1366,-4.1375,-4.1383,-4.1432,-4.1449,-4.1464,0,0,0,0,0,0,-4.0649,-4.0712,-4.0703,-4.0818,-4.0869,-4.0924,-4.0982,-4.0972,-4.1033,-4.1026,-4.1036,-4.105,-4.1154,-4.1181,-4.1127,-4.1306,-4.1255,-4.1268,-4.1285,-4.1301,-4.1314,-4.1306,-4.1084,0,0,0,0,0,-4.0671,-4.0742,-4.0792,-4.0888,-4.0914,-4.0944,-4.0984,-4.0989,-4.1041,-4.1062,-4.1097,-4.1147,-4.1215,-4.1259,-4.1324,-4.1441,-4.1455,-4.1494,-4.1507,-4.1517,-4.1529,-4.1595,-4.1613,-4.1416,-4.1416,-4.1416,0,0,-4.0717,-4.076,-4.0803,-4.0897,-4.0937,-4.1009,-4.0962,-4.104,-4.1094,-4.1073,-4.1172,-4.1199,-4.1256,-4.1366,-4.1417,-4.1392,-4.1586,-4.1528,-4.1536,-4.1542,-4.1605,-4.1624,-4.1641,-4.1422,-4.1421,-4.142,0,0,-4.0838,-4.0877,-4.0963,-4.1003,-4.1064,-4.1084,-4.1104,-4.1162,-4.118,-4.1279,-4.1265,-4.1329,-4.1445,-4.1486,-4.1522,-4.166,-4.1646,-4.168,-4.1748,-4.1812,-4.1828,-4.1841,-4.1892,-4.191,-4.1692,-4.1692,-4.1692,0,-4.0887,-4.0996,-4.1007,-4.1088,-4.113,-4.1116,-4.1203,-4.1241,-4.1319,-4.1349,-4.132,-4.1467,-4.1504,-4.1625,-4.1658,-4.1687,-4.1712,-4.1674,-4.1825,-4.1839,-4.1852,-4.19,-4.1919,-4.1696,-4.1695,-4.1695,-4.1695,0,-4.1054,-4.113,-4.1192,-4.127,-4.1319,-4.1402,-4.1425,-4.1473,-4.1473,-4.1495,-4.1597,-4.1641,-4.1715,-4.1743,-4.1743,-4.1865,-4.1848,-4.1822,-4.1771,-4.1874,-4.192,-4.1938,-4.1701,-4.17,-4.1699,-4.1698,0,0,-4.1203,-4.1287,-4.1309,-4.1345,-4.1412,-4.1471,-4.1553,-4.1627,-4.1668,-4.1722,-4.1792,-4.1891,-4.1868,-4.1909,-4.1914,-4.197,-4.2078,-4.1937,-4.1939,-4.1963,-4.2216,-4.2236,-4.2257,-4.2069,-4.2072,-4.2075,-4.2211,0,-4.1331,-4.1478,-4.1491,-4.1622,-4.1693,-4.1681,-4.1753,-4.1801,-4.1824,-4.1887,-4.1911,-4.1982,-4.1946,-4.1971,-4.2025,-4.2053,-4.2129,-4.2043,-4.2134,-4.2137,-4.2122,-4.2281,-4.2302,-4.2429,-4.2229,-4.2232,-4.2234,0,-4.15,-4.1562,-4.1701,-4.176,-4.179,-4.1854,-4.1924,-4.1984,-4.2038,-4.2051,-4.2098,-4.2095,-4.2179,-4.2124,-4.2241,-4.2183,-4.222,-4.2239,-4.2245,-4.2255,-4.2193,-4.2297,-4.2469,-4.2489,-4.2262,-4.226,-4.2258,0,-4.1597,-4.1714,-4.1814,-4.1844,-4.1914,-4.196,-4.1991,-4.2042,-4.2086,-4.2146,-4.2175,-4.2243,-4.2281,-4.2333,-4.2349,-4.2308,-4.2466,-4.2412,-4.2479,-4.2479,-4.2514,-4.2512,-4.2697,-4.2536,-4.2535,-4.2535,-4.2534,0,-4.174,-4.1826,-4.1858,-4.192,-4.2016,-4.2029,-4.2124,-4.2152,-4.2198,-4.2264,-4.2256,-4.2318,-4.2334,-4.2399,-4.2412,-4.2507,-4.2524,-4.2536,-4.2539,-4.2538,-4.2537,-4.2564,-4.2556,-4.254,-4.2539,-4.2538,-4.2537,0,-4.1865,-4.189,-4.1997,-4.2055,-4.2072,-4.214,-4.2189,-4.2248,-4.2269,-4.2353,-4.2373,-4.2407,-4.2483,-4.2504,-4.2594,-4.2603,-4.2716,-4.2709,-4.2698,-4.2699,-4.2765,-4.276,-4.2976,-4.3005,-4.2823,-4.2824,-4.2826,0,-4.1955,-4.2022,-4.2087,-4.2132,-4.2165,-4.2237,-4.2282,-4.2297,-4.2345,-4.2412,-4.2463,-4.2538,-4.26,-4.2721,-4.2753,-4.2823,-4.2819,-4.289,-4.2829,-4.2827,-4.2822,-4.2819,-4.2826,-4.2902,-4.2904,-4.2905,-4.2907,0,-4.2114,-4.2123,-4.219,-4.2261,-4.2316,-4.2373,-4.2427,-4.2463,-4.2486,-4.2539,-4.2618,-4.2666,-4.2759,-4.2834,-4.2905,-4.2935,-4.2926,-4.2925,-4.2945,-4.2946,-4.2937,-4.2945,-4.2732,-4.2921,-4.2919,-4.2918,-4.2917,-4.2917,-4.2226,-4.2285,-4.2341,-4.2416,-4.2458,-4.2509,-4.2568,-4.2598,-4.2664,-4.2742,-4.2747,-4.2832,-4.2885,-4.2979,-4.3014,-4.308,-4.3059,-4.3087,-4.3094,-4.3101,-4.3108,-4.2925,-4.3093,-4.3092,-4.3092,-4.3092,-4.3091,0,-4.2386,-4.2421,-4.249,-4.2567,-4.2626,-4.2612,-4.2671,-4.2721,-4.2797,-4.2848,-4.2909,-4.3,-4.3073,-4.3111,-4.3183,-4.3229,-4.3227,-4.3248,-4.3246,-4.3253,-4.3122,-4.3099,-4.3249,-4.3249,-4.3249,-4.3249,-4.3249,-4.3249,-4.2476,-4.2576,-4.2592,-4.2713,-4.2748,-4.2833,-4.2868,-4.2915,-4.2957,-4.3059,-4.312,-4.3145,-4.3191,-4.3267,-4.3333,-4.3342,-4.337,-4.3394,-4.3401,-4.3278,-4.3262,-4.3247,-4.3225,-4.34,-4.34,-4.3527,-4.3528,-4.3529]}]]